Location: Boda
(47.1872°N, 9.5454°E)
Time: 09:39:34
(UTC+00:00)

Meteor 1-28 Rocket - Pass Details

Date: 14 May 2021
Orbit: 504 x 521 km, 97.4° (Epoch: 16 June)

Event Time Altitude Azimuth Distance (km) Brightness Sun altitude
Exits shadow 01:33:58 14° 148° (SSE) 1,467 5.3 -17.4°
Maximum altitude 01:36:57 53° 73° (ENE) 630 3.9 -17.1°
Drops below altitude 10° 01:40:36 10° 356° (N) 1,734 6.6 -16.8°
Sets 01:42:44 0° 352° (N) 2,627 7.5 -16.6°
